Location: Dos Palmas
(32.4468°N, 116.8732°W)
Time: 05:36:37
(UTC+00:00)

SL-4 R/B - Pass Details

Date: 20 June 2021
Orbit: 428 x 662 km, 51.6° (Epoch: 29 July)

Event Time Altitude Azimuth Distance (km) Brightness Sun altitude
Rises 05:54:35 0° 246° (WSW) 2,812 5.7 -27.8°
Reaches altitude 10° 05:57:06 10° 256° (WSW) 1,871 4.9 -28.1°
Maximum altitude 06:00:58 33° 321° (NW) 926 3.6 -28.4°
Drops below altitude 10° 06:04:35 10° 27° (NNE) 1,743 5.0 -28.8°
Sets 06:06:51 0° 37° (NE) 2,588 5.8 -29.0°
